星链-1835 (STARLINK-1835 )

导读 | 豆包AI

STARLINK-1835是美国太空探索技术公司Starlink星链卫星互联网项目的卫星,于2020年10月24日发射升空。它属于星链低轨互联网星座,承担卫星互联网信号转发任务,为全球偏远地区、海上航空等场景提供高速互联网接入服务,助力扩展全球通信覆盖网络。

基本信息
目录编号:
46782
目录名称:
STARLINK-1835
国际标识:
2020-074AV
轨道中心:
EARTH
卫星名称:
星链-1835
卫星全名:
星链-1835 (STARLINK-1835 )
卫星状态:
在轨 (已飞行1988 天)
发射日期:
2020-10-24 UTC
国别 :
美国 (US)
星等 :
--
轨道信息
数据来源 国际轨道数据
星历时间: 2026-04-04T04:00:02+0800
7小时前
查看轨道信息
半长轴: 6753.098km
偏心率: 0.0008834
轨道倾角: 53.042°
近地点辐角 53.381°
升交点赤经 152.095°
平近点角 253.468°
近地点: 368.995km
远地点: 380.927km
周期: 92.048分钟
每日圈数: 15.644016
详细信息
固有亮度:
5
最大亮度:
2.5
卫星平台:
Starlink V1.0
覆盖范围:
全球
运营商:
太空探索技术公司
运营商所在国:
美国
制造商(研发单位):
太空探索技术公司
制造商所在国:
美国
使用方式:
暂无
卫星简介
星链(Starlink)计划是由太空探索技术公司(SpaceX)提出的一个巨型低轨卫星互联网星座项目,计划在2019年至2024年间在太空搭建由约1.2万颗卫星组成的“星链”网络,其中1584颗将部署在地球上空550千米处的近地轨道,并从2020年开始工作。该卫星仍在工作。
2D轨道图
3D轨道图
轨道高度分析图
轨道倾角分析图
轨道综合分析图
查看轨道综合分析图